[[{"header":{"parameterUnit":"m.s-1","parameterCategory":1,"la1":30.2991,"la2":30.254,"lo1":-89.0895,"lo2":-89.0444,"dy":0.0017,"dx":0.0017,"nx":28,"ny":28,"refTime":"2023-08-04T09:00:00:Z","depth":0,"parameterNumber":2,"parameterNumberName":"U-component_of_WINDS"},"data":[0,0,0,0,0,0,0,0,0,0,0,0,0,0,0,0,0,0,0,0,0,0,0,0,0,0,0,0,0,0,0,0,0,0,0,0,0,0,0,0,0,0,0,0,0,0,0,0,0,0,0,0,0,0,0,0,0,0,5.5372,5.5373,0,5.5452,5.5453,5.5454,5.5359,5.5355,5.5352,5.5348,5.5431,5.5436,5.5441,0,0,0,0,0,0,0,0,0,0,0,0,0,5.5133,5.5138,5.5372,5.5373,5.5374,5.5452,5.5453,5.5454,5.536,5.5355,5.5351,5.5347,5.5429,5.5435,5.5442,0,0,0,0,0,0,0,0,0,0,0,0,0,5.5227,5.5139,5.5371,5.5336,5.5333,5.5452,5.5453,5.5455,5.536,5.5355,5.535,5.5345,5.5427,5.5435,5.5443,5.56,0,0,5.5468,5.5472,0,0,0,0,0,0,0,0,5.5222,5.5236,5.534,5.5339,5.5336,5.539,5.5399,5.5503,5.5362,5.535,5.5348,5.5342,5.5421,5.543,5.5456,5.5604,5.5607,5.5469,5.5474,5.5477,5.548,0,0,0,0,0,0,0,5.5216,5.5232,5.5403,5.5342,5.5339,5.5315,5.5322,5.5418,5.5415,5.5351,5.5344,5.5355,5.5419,5.5449,5.5458,5.5609,5.5468,5.5476,5.5481,5.5484,5.5884,5.589,0,0,0,0,0,0,5.5214,5.5227,5.5401,5.5406,5.5265,5.5324,5.5332,5.5378,5.5413,5.5414,5.5359,5.535,5.5437,5.5448,5.546,5.5643,5.5477,5.5485,5.549,5.5879,5.5886,5.5892,0,0,0,0,0,0,5.5209,5.523,5.5398,5.5315,5.5334,5.5333,5.5386,5.5383,5.5412,5.542,5.5418,5.539,5.5434,5.5449,5.5565,5.5645,5.5489,5.5496,5.5872,5.5881,5.5889,5.6013,0,0,0,0,0,0,5.5202,5.5229,5.5289,5.5317,5.5339,5.5502,5.5391,5.5388,5.5426,5.5415,5.5449,5.5449,5.5431,5.5553,5.5573,5.5653,5.5503,5.5865,5.5876,5.5886,5.6001,5.6024,5.6044,0,0,0,0,0,5.5194,5.5322,5.5293,5.5314,5.5415,5.5507,5.552,5.5496,5.5433,5.5493,5.5498,5.5448,5.5634,5.5566,5.5588,5.5671,5.586,5.5873,5.5885,5.5992,5.602,5.6043,0,0,0,0,0,0,5.5304,5.5325,5.5293,5.5434,5.5469,5.5491,5.5566,5.5527,5.5581,5.5568,5.5537,5.5545,5.5668,5.5682,5.5606,5.5823,5.5736,5.5754,5.5809,5.5836,5.5857,5.585,5.5509,0,0,0,0,0,5.5345,5.5419,5.5433,5.5555,5.5575,5.5568,5.5607,5.5585,5.5621,5.5635,5.5648,5.5685,5.575,5.5794,5.5856,5.6003,5.6007,5.6072,5.6093,5.611,5.6125,5.62,5.6228,5.5934,5.5934,5.5934,0,0,5.5429,5.545,5.5498,5.5578,5.5603,5.5678,5.5581,5.5666,5.5721,5.5648,5.5757,5.5769,5.5807,5.5938,5.5997,5.5953,5.6207,5.6127,5.6141,5.6146,5.6216,5.6244,5.6269,5.5943,5.5941,5.594,0,0,5.5621,5.5646,5.5748,5.5775,5.5814,5.5808,5.5833,5.586,5.5864,5.5974,5.592,5.5985,5.61,5.6128,5.6157,5.6357,5.6312,5.6379,5.6489,5.6563,5.6586,5.6606,5.6674,5.6699,5.6394,5.6394,5.6394,0,5.5721,5.5833,5.5806,5.5894,5.5929,5.5867,5.5969,5.5996,5.6054,5.6078,5.6029,5.617,5.6192,5.6327,5.6375,5.6402,5.6427,5.6373,5.6585,5.6605,5.6623,5.6687,5.6713,5.6402,5.6401,5.64,5.6399,0,5.5952,5.6031,5.6109,5.6165,5.6209,5.6304,5.629,5.6338,5.6312,5.6311,5.6421,5.6445,5.6508,5.6539,5.6516,5.6671,5.6642,5.659,5.6501,5.6659,5.6719,5.6744,5.6413,5.641,5.6408,5.6406,0,0,5.6216,5.6253,5.6282,5.6305,5.6342,5.6402,5.6493,5.6554,5.6594,5.6636,5.6709,5.6807,5.6758,5.6791,5.6771,5.6836,5.6988,5.6775,5.6775,5.681,5.7155,5.7192,5.7221,5.6959,5.6964,5.6968,5.7151,0,5.6405,5.6562,5.654,5.6691,5.6761,5.6702,5.678,5.6811,5.6812,5.6871,5.6872,5.694,5.6872,5.6891,5.6953,5.6956,5.7056,5.6943,5.7025,5.7028,5.7014,5.7253,5.7293,5.7465,5.7175,5.7179,5.7181,0,5.6647,5.6695,5.6853,5.6876,5.6905,5.6977,5.7029,5.7087,5.7119,5.7115,5.7152,5.7118,5.7207,5.7119,5.7239,5.7163,5.7195,5.7201,5.7207,5.7212,5.7112,5.7261,5.752,5.7544,5.7219,5.7216,5.7213,0,5.6818,5.6924,5.703,5.7052,5.7083,5.7134,5.7149,5.7177,5.7214,5.726,5.7283,5.734,5.737,5.7414,5.7395,5.7333,5.7518,5.7429,5.7515,5.7515,5.7555,5.7552,5.7819,5.7581,5.7581,5.758,5.758,0,5.703,5.7128,5.7107,5.7173,5.728,5.7252,5.7359,5.7367,5.7391,5.7456,5.7409,5.7471,5.7444,5.7504,5.7491,5.759,5.7605,5.7603,5.7597,5.7605,5.7605,5.7623,5.761,5.7587,5.7586,5.7584,5.7583,0,5.7239,5.7229,5.7341,5.7361,5.7368,5.7446,5.7461,5.7522,5.7519,5.7601,5.7619,5.7614,5.7681,5.7668,5.7743,5.7733,5.7857,5.7839,5.7846,5.784,5.7925,5.7916,5.8211,5.8247,5.7989,5.7992,5.7994,0,5.7373,5.7447,5.7474,5.7513,5.7532,5.7597,5.7634,5.761,5.765,5.7691,5.7746,5.7809,5.7858,5.7968,5.797,5.8026,5.8006,5.8106,5.8014,5.8019,5.8003,5.7998,5.8003,5.8123,5.8126,5.8129,5.8131,0,5.7612,5.7602,5.7658,5.7712,5.7757,5.7798,5.7835,5.787,5.7848,5.7896,5.7963,5.8001,5.8076,5.8138,5.8189,5.8203,5.8163,5.816,5.8182,5.8189,5.8188,5.8186,5.7891,5.8152,5.815,5.8149,5.8147,5.8147,5.7785,5.7846,5.7873,5.7936,5.7961,5.7995,5.8052,5.8055,5.8111,5.817,5.8152,5.8228,5.8256,5.832,5.8341,5.8399,5.8361,5.8395,5.8402,5.841,5.8418,5.8182,5.8409,5.8408,5.8407,5.8407,5.8406,0,5.8017,5.8032,5.809,5.8141,5.819,5.8148,5.8186,5.8229,5.8296,5.8326,5.8374,5.845,5.8509,5.8516,5.8571,5.8616,5.8599,5.8631,5.8626,5.8629,5.8451,5.8424,5.8644,5.8644,5.8644,5.8644,5.8644,5.8644,5.8144,5.8244,5.8238,5.8349,5.8362,5.8436,5.846,5.8491,5.8514,5.8601,5.8649,5.8653,5.8673,5.8729,5.8781,5.8781,5.8802,5.8841,5.8834,5.8666,5.8643,5.862,5.8594,5.8847,5.8847,5.9007,5.9009,5.901]},{"header":{"parameterUnit":"m.s-1","parameterCategory":1,"la1":30.2991,"la2":30.254,"lo1":-89.0895,"lo2":-89.0444,"dy":0.0017,"dx":0.0017,"nx":28,"ny":28,"refTime":"2023-08-04T09:00:00:Z","depth":0,"parameterNumber":3,"parameterNumberName":"V-component_of_WINDS"},"data":[0,0,0,0,0,0,0,0,0,0,0,0,0,0,0,0,0,0,0,0,0,0,0,0,0,0,0,0,0,0,0,0,0,0,0,0,0,0,0,0,0,0,0,0,0,0,0,0,0,0,0,0,0,0,0,0,0,0,3.9391,3.9392,0,3.949,3.9492,3.9493,3.949,3.9488,3.9487,3.9486,3.9583,3.9587,3.959,0,0,0,0,0,0,0,0,0,0,0,0,0,3.9193,3.9197,3.9391,3.9392,3.9393,3.949,3.9492,3.9493,3.949,3.9488,3.9487,3.9485,3.9582,3.9586,3.9591,0,0,0,0,0,0,0,0,0,0,0,0,0,3.9284,3.9198,3.9391,3.9404,3.9406,3.949,3.9492,3.9493,3.949,3.9488,3.9486,3.9484,3.958,3.9586,3.9591,3.9668,0,0,3.9609,3.9612,0,0,0,0,0,0,0,0,3.9279,3.9291,3.9401,3.9403,3.9405,3.9476,3.9458,3.9552,3.9491,3.9458,3.9486,3.9483,3.9549,3.9557,3.958,3.9673,3.9677,3.961,3.9613,3.9616,3.9617,0,0,0,0,0,0,0,3.9273,3.9287,3.943,3.9402,3.9405,3.9403,3.9413,3.9475,3.9513,3.9461,3.9461,3.9473,3.9549,3.9574,3.9582,3.9678,3.961,3.9615,3.9618,3.962,3.9836,3.9839,0,0,0,0,0,0,3.9264,3.9282,3.9427,3.9433,3.9336,3.9408,3.942,3.9455,3.9513,3.952,3.9474,3.9472,3.9565,3.9575,3.9585,3.9678,3.9616,3.9621,3.9624,3.9834,3.9837,3.9839,0,0,0,0,0,0,3.926,3.9277,3.9423,3.9358,3.9376,3.9414,3.9453,3.9458,3.9483,3.9523,3.9529,3.9493,3.9564,3.9577,3.9647,3.9681,3.9624,3.9629,3.9832,3.9835,3.9838,3.9863,0,0,0,0,0,0,3.9255,3.9276,3.9307,3.9358,3.938,3.9485,3.9455,3.9462,3.9493,3.9492,3.9542,3.9549,3.9564,3.9639,3.9653,3.9688,3.9633,3.9829,3.9833,3.9837,3.9859,3.9867,3.9873,0,0,0,0,0,3.9247,3.9309,3.9308,3.9326,3.9419,3.9487,3.9499,3.9516,3.9496,3.9526,3.9552,3.9547,3.9675,3.9646,3.9662,3.9699,3.9827,3.9832,3.9837,3.9856,3.9866,3.9873,0,0,0,0,0,0,3.9259,3.9316,3.9316,3.9397,3.9437,3.9486,3.9525,3.9525,3.9571,3.9567,3.9585,3.9597,3.9666,3.969,3.9656,3.9775,3.9748,3.9757,3.9757,3.9766,3.9773,3.9766,3.9638,0,0,0,0,0,3.9272,3.9324,3.937,3.9436,3.9457,3.9488,3.9518,3.9528,3.9569,3.9586,3.9617,3.9657,3.9705,3.9737,3.9785,3.9863,3.9873,3.9896,3.9903,3.9909,3.9915,3.9957,3.9967,3.9856,3.9856,3.9856,0,0,3.9297,3.9334,3.9366,3.944,3.9472,3.9524,3.9502,3.9558,3.9596,3.9594,3.9662,3.9686,3.9731,3.9805,3.9839,3.9827,3.9948,3.9915,3.9919,3.9923,3.9963,3.9973,3.9983,3.986,3.9859,3.9858,0,0,3.9369,3.9404,3.9462,3.9496,3.9545,3.9565,3.9579,3.9628,3.9644,3.9713,3.9713,3.9757,3.9842,3.9874,3.9901,3.9984,3.998,3.9999,4.0035,4.0075,4.0083,4.0091,4.0119,4.0129,4.0005,4.0005,4.0006,0,3.9394,3.9474,3.9492,3.9548,3.958,3.9582,3.964,3.9671,3.9733,3.9754,3.9739,3.9845,3.9875,3.9956,3.9976,3.9999,4.0013,3.9993,4.0081,4.0089,4.0096,4.0123,4.0134,4.0007,4.0007,4.0007,4.0007,0,3.9501,3.9555,3.9597,3.9658,3.9694,3.9751,3.9776,3.981,3.9816,3.9837,3.9906,3.9943,3.9997,4.0017,4.0023,4.0098,4.0088,4.0077,4.005,4.0108,4.0134,4.0145,4.001,4.0009,4.0009,4.0008,0,0,3.9584,3.9654,3.9669,3.9696,3.975,3.9792,3.9848,3.9902,3.993,3.9973,4.0019,4.009,4.0079,4.011,4.012,4.0155,4.0216,4.0139,4.014,4.0151,4.0299,4.0306,4.0318,4.0215,4.0217,4.0218,4.0295,0,3.9661,3.9762,3.978,3.9867,3.9917,3.9919,3.9967,4.0005,4.0025,4.0069,4.0091,4.0141,4.0124,4.0142,4.0178,4.0202,4.0246,4.0196,4.0256,4.0258,4.0244,4.0332,4.034,4.0411,4.0305,4.0307,4.0308,0,3.9764,3.981,3.9903,3.995,3.9971,4.0015,4.0065,4.0108,4.0149,4.0162,4.0196,4.0201,4.0257,4.0228,4.0304,4.027,4.0295,4.031,4.0313,4.0319,4.0286,4.0338,4.0434,4.0444,4.0324,4.0323,4.0322,0,3.9814,3.9899,3.9965,3.9988,4.0045,4.0075,4.0099,4.014,4.017,4.0214,4.0234,4.0283,4.0309,4.0346,4.0363,4.0341,4.0438,4.0411,4.0448,4.0447,4.0467,4.0466,4.0567,4.0485,4.0485,4.0485,4.0485,0,3.9897,3.9954,3.9988,4.0028,4.0091,4.011,4.017,4.0194,4.0229,4.0273,4.0278,4.0318,4.0339,4.0382,4.0396,4.0456,4.0468,4.0478,4.0481,4.0478,4.0476,4.0494,4.0489,4.0488,4.0487,4.0487,4.0486,0,3.9963,3.9988,4.006,4.0108,4.0121,4.0165,4.0204,4.0243,4.0263,4.0318,4.0332,4.0363,4.0414,4.0436,4.0498,4.0507,4.0575,4.0575,4.0562,4.0562,4.0598,4.0594,4.0713,4.0728,4.0638,4.0639,4.0639,0,4.0014,4.0057,4.011,4.014,4.0166,4.0215,4.0246,4.0266,4.0298,4.0349,4.038,4.0432,4.0474,4.0555,4.0582,4.0629,4.0629,4.0667,4.0636,4.063,4.0628,4.0624,4.0628,4.0673,4.0673,4.0674,4.0675,0,4.0102,4.0112,4.0158,4.0209,4.0247,4.0287,4.0327,4.0351,4.0376,4.0412,4.0465,4.0497,4.0561,4.0611,4.066,4.0683,4.0683,4.0685,4.0695,4.0692,4.0681,4.0686,4.0576,4.0682,4.0681,4.068,4.068,4.068,4.0161,4.0199,4.0241,4.0292,4.0324,4.0361,4.0399,4.0424,4.0469,4.0523,4.0531,4.0587,4.0626,4.0692,4.0717,4.0759,4.0749,4.0766,4.0769,4.0773,4.0774,4.0676,4.0768,4.0768,4.0768,4.0768,4.0768,0,4.0247,4.0275,4.0322,4.0377,4.0416,4.0414,4.0457,4.049,4.054,4.0577,4.0618,4.0678,4.0726,4.0757,4.0805,4.0833,4.0834,4.0845,4.0842,4.0847,4.0781,4.0766,4.0843,4.0843,4.0843,4.0843,4.0843,4.0843,4.0297,4.0361,4.0376,4.0455,4.0481,4.0537,4.0562,4.0595,4.0624,4.0691,4.0732,4.0752,4.0786,4.0837,4.088,4.0888,4.0905,4.0916,4.0923,4.086,4.0852,4.0845,4.0831,4.092,4.092,4.0985,4.0986,4.0986]}]]